IUS DEB, 29037

Orbit data source: Space-Track

IUS DEB, 29037 is space debris originally from a launch on Fri, 23 Jul 1999 UTC launched from the Air Force Eastern Test Range (AFETR). Debris objects in space refer to the collection of defunct objects orbiting the Earth. Examples of debris include non-operational satellites, rocket bodies, and fragments generated from explosions, collisions, or faulty payload assembly.

Loading next visibility...
Identifier
29037, 1999-040G
Orbit
Active
Country
Flag of USUS
Related business
Manufacturer
Boeing/Kent
Mission
Spacecraft
Bus & Motor
Unknown
Mass
Unknown
Launch date (UTC)
1999-07-23 (27 years ago)
Launch vehicle
Unknown
Launch site
Air Force Eastern Test Range (AFETR)
Object type
Payload
Rocket body
Debris
Shape & HBR
Unknown shape, 0.1 m
Radar Cross Section
Medium (>0.1 m² and <1 m²)

Expand to show TLE details & history
Last TLE update: 1 week ago

TLE from 1 week ago
0 IUS DEB
1 29037U 99040G   26258.82217237  .00004958  00000-0  75157-3 0  9992
2 29037  28.4436 103.6065 4372356 136.6530 267.5797  6.68929954277574
Epoch: 2026-09-15T19:43Z
TLE epoch observation values (Epoch: 2026-09-15T19:43:55.692Z)
Latitude
-0.00002°
Longitude
172.84181°
Altitude
7,726.278 km
Speed
4.799 km/s
True Right ascension
06h 54m 25s
True Declination
0° 00' 00"
Sunlit
Object was in daylight at epoch
Visualization orbit readout
Latitude
Unknown
Longitude
Unknown
Altitude
Unknown
Speed
Unknown
Apparent Right ascension
Unknown
Apparent Declination
Unknown
Sunlit
N/A
Visualization observer readout
Local Sidereal Time
16:02:03
Azimuth
Unknown
Elevation
Unknown
Doppler factor
Unknown
Orbital elements
Apogee altitude
10,727.222 km
Perigee altitude
319.642 km
Semi-major axis
11,901.569 km
Eccentricity
0.43724
Inclination
28.4436°
RAAN
103.6065°
Arg. of periapsis
136.653°
True anomaly
223.38896°
Mean anomaly
267.5797°
Eccentric anomaly
244.89461°
Mean motion
1.67162 °/min
Orbital period
215.36 mins
BSTAR
0.00075157
Loading maneuver chart data...
Computing Atmospheric mass density...
Loading historical data...
Loading historical data...
Loading historical data...
Loading historical data...
Loading historical data...
Loading historical data...
Loading historical data...

Documentation

Showing up to 5 results
|